Location: ????????
(48.4751°N, 37.6926°E)
Time: 13:11:36
(UTC+00:00)

Cosmos 1503 Rocket - Pass Details

Date: 20 January 2021
Orbit: 752 x 791 km, 74.0° (Epoch: 26 February)

Event Time Altitude Azimuth Distance (km) Brightness Sun altitude
Rises 14:33:31 0° 192° (SSW) 3,264 7.9 -4.4°
Reaches altitude 10° 14:35:54 10° 190° (S) 2,343 7.0 -4.8°
Maximum altitude 14:41:12 67° 109° (ESE) 860 4.1 -5.6°
Drops below altitude 10° 14:46:32 10° 28° (NNE) 2,367 6.1 -6.4°
Sets 14:48:57 0° 25° (NNE) 3,299 6.8 -6.7°
